Ankeny, IA

12:02 PM CST on December 11, 2017 (GMT -0600)
Ankeny Regional

Weather History for KIKV - January, 2014

Change the Weather History Date:

Wednesday, January 29, 2014

  Actual Average (KDSM) Record (KDSM)
Temperature  
Mean Temperature 20 °F -  
Max Temperature 39 °F 31 °F 62 °F (1919)
Min Temperature 0 °F 13 °F -23 °F (1966)
Degree Days  
Heating Degree Days 46    
Moisture  
Dew Point 2 °F    
Average Humidity 45    
Maximum Humidity 72    
Minimum Humidity 24    
Precipitation  
Precipitation 0.00 in - - ()
Sea Level Pressure  
Sea Level Pressure 30.00 in    
Wind  
Wind Speed 7 mph (SSW)    
Max Wind Speed 22 mph    
Max Gust Speed 30 mph    
Visibility 10 miles    
Events      
Averages and records for this station are not official NWS values.
T = Trace of Precipitation, MM = Missing Value Source: NWS Daily Summary

Daily Weather History Graph

Daily Weather History Graph

Search for Another Location

Airport or City:

Trip Planner

Search our weather history database for the weather conditions in past years. The results will help you decide how hot, cold, wet, or windy it might be!

Date:

Astronomy

Jan. 29, 2014 Rise Set
Actual Time 7:29 AM CST 5:26 PM CST
Civil Twilight 6:59 AM CST 5:55 PM CST
Nautical Twilight 6:26 AM CST 6:29 PM CST
Astronomical Twilight 5:53 AM CST 7:01 PM CST
Moon 6:06 AM CST (1/29) 4:26 PM CST (1/29)
Length of Visible Light 10h 56m
Length of Day
9h 56m
Waning Crescent, 2% of the Moon is Illuminated
Jan 29
Waning Crescent
Jan 30
New
Feb 6
First Quarter
Feb 14
Full
Feb 22
Last Quarter

Hourly Weather History & Observations

Time (CST) Temp. Windchill Dew Point Humidity Pressure Visibility Wind Dir Wind Speed Gust Speed Precip Events Conditions
12:15 AM 1.4 °F - -7.6 °F 66% 30.24 in 10.0 mi Calm Calm - N/A   Clear
12:35 AM 1.4 °F - -7.6 °F 66% 30.23 in 10.0 mi Calm Calm - N/A   Clear
12:55 AM 1.4 °F - -7.6 °F 66% 30.23 in 10.0 mi Calm Calm - N/A   Clear
1:15 AM 1.4 °F - -7.6 °F 66% 30.23 in 10.0 mi Calm Calm - N/A   Clear
1:35 AM 1.4 °F - -7.6 °F 66% 30.23 in 10.0 mi Calm Calm - N/A   Clear
1:55 AM 1.4 °F - -7.6 °F 66% 30.22 in 10.0 mi Calm Calm - N/A   Clear
2:15 AM 1.4 °F - -7.6 °F 66% 30.22 in 10.0 mi Calm Calm - N/A   Clear
2:35 AM 5.0 °F -2.1 °F -9.4 °F 52% 30.21 in 10.0 mi SW 3.5 mph - N/A   Clear
2:55 AM 1.4 °F -6.2 °F -7.6 °F 66% 30.21 in 10.0 mi SW 3.5 mph - N/A   Clear
3:15 AM -0.4 °F - -9.4 °F 66% 30.20 in 10.0 mi Calm Calm - N/A   Clear
3:35 AM 3.2 °F -6.2 °F -7.6 °F 61% 30.19 in 10.0 mi SW 4.6 mph - N/A   Clear
3:55 AM 5.0 °F -2.1 °F -7.6 °F 56% 30.19 in 10.0 mi SSW 3.5 mph - N/A   Clear
4:15 AM -0.4 °F - -7.6 °F 72% 30.18 in 10.0 mi Calm Calm - N/A   Clear
4:35 AM 1.4 °F - -7.6 °F 66% 30.18 in 10.0 mi Calm Calm - N/A   Clear
4:55 AM -0.4 °F - -9.4 °F 66% 30.18 in 10.0 mi Calm Calm - N/A   Clear
5:15 AM 3.2 °F -6.2 °F -7.6 °F 61% 30.17 in 10.0 mi SSW 4.6 mph - N/A   Clear
5:35 AM 5.0 °F -5.6 °F -7.6 °F 56% 30.17 in 10.0 mi SW 5.8 mph - N/A   Clear
5:55 AM 5.0 °F -5.6 °F -7.6 °F 56% 30.16 in 10.0 mi SW 5.8 mph - N/A   Clear
6:15 AM 6.8 °F -5.9 °F -5.8 °F 56% 30.15 in 10.0 mi SW 8.1 mph - N/A   Clear
6:35 AM 3.2 °F -7.8 °F -7.6 °F 61% 30.15 in 10.0 mi SSE 5.8 mph - N/A   Clear
6:55 AM 1.4 °F -9.9 °F -7.6 °F 66% 30.15 in 10.0 mi SSE 5.8 mph - N/A   Clear
7:15 AM 3.2 °F -6.2 °F -7.6 °F 61% 30.15 in 10.0 mi SSE 4.6 mph - N/A   Clear
7:35 AM 3.2 °F -6.2 °F -7.6 °F 61% 30.15 in 10.0 mi SSE 4.6 mph - N/A   Clear
7:55 AM 3.2 °F -6.2 °F -5.8 °F 66% 30.14 in 10.0 mi South 4.6 mph - N/A   Clear
8:15 AM 5.0 °F -5.6 °F -4.0 °F 66% 30.14 in 10.0 mi SSE 5.8 mph - N/A   Clear
8:35 AM 8.6 °F -1.3 °F -2.2 °F 62% 30.14 in 10.0 mi SSE 5.8 mph - N/A   Clear
8:55 AM 12.2 °F 1.7 °F -0.4 °F 57% 30.13 in 10.0 mi SSW 6.9 mph - N/A   Clear
9:15 AM 14.0 °F 2.9 °F -0.4 °F 53% 30.12 in 10.0 mi SSW 8.1 mph - N/A   Clear
9:35 AM 15.8 °F 4.2 °F -0.4 °F 49% 30.11 in 10.0 mi SSW 9.2 mph - N/A   Clear
9:55 AM 17.6 °F 5.7 °F 1.4 °F 49% 30.11 in 10.0 mi SSW 10.4 mph 16.1 mph N/A   Clear
10:15 AM 19.4 °F 7.9 °F 1.4 °F 46% 30.11 in 10.0 mi SSW 10.4 mph 16.1 mph N/A   Clear
10:35 AM 23.0 °F 11.7 °F 3.2 °F 43% 30.10 in 10.0 mi SSW 11.5 mph - N/A   Clear
10:55 AM 24.8 °F 13.4 °F 3.2 °F 40% 30.10 in 10.0 mi SSW 12.7 mph - N/A   Clear
11:15 AM 26.6 °F 15.2 °F 3.2 °F 37% 30.08 in 10.0 mi SSW 13.8 mph - N/A   Clear
11:35 AM 28.4 °F 17.5 °F 3.2 °F 34% 30.07 in 10.0 mi SSW 13.8 mph 21.9 mph N/A   Clear
11:55 AM 30.2 °F 20.2 °F 3.2 °F 32% 30.05 in 10.0 mi SSW 12.7 mph 21.9 mph N/A   Clear
12:15 PM 32.0 °F 20.5 °F 3.2 °F 30% 30.03 in 10.0 mi SSW 18.4 mph - N/A   Clear
12:35 PM 33.8 °F 22.8 °F 3.2 °F 28% 30.02 in 10.0 mi SSW 18.4 mph - N/A   Clear
12:55 PM 33.8 °F 23.2 °F 3.2 °F 28% 30.00 in 10.0 mi SSW 17.3 mph 25.3 mph N/A   Clear
1:15 PM 35.6 °F 25.2 °F 3.2 °F 26% 29.98 in 10.0 mi SSW 18.4 mph - N/A   Clear
1:35 PM 35.6 °F 24.2 °F 3.2 °F 26% 29.97 in 10.0 mi SSW 21.9 mph - N/A   Clear
1:55 PM 37.4 °F 27.8 °F 3.2 °F 24% 29.95 in 10.0 mi SSW 17.3 mph 29.9 mph N/A   Clear
2:15 PM 35.6 °F 25.5 °F 3.2 °F 26% 29.94 in 10.0 mi SSW 17.3 mph 26.5 mph N/A   Clear
2:35 PM 37.4 °F 28.2 °F 5.0 °F 26% 29.93 in 10.0 mi SSW 16.1 mph 27.6 mph N/A   Clear
2:55 PM 37.4 °F 26.9 °F 5.0 °F 26% 29.92 in 10.0 mi SSW 20.7 mph 26.5 mph N/A   Clear
3:15 PM 37.4 °F 27.8 °F 6.8 °F 28% 29.90 in 10.0 mi SSW 17.3 mph 24.2 mph N/A   Clear
3:35 PM 39.2 °F 30.2 °F 6.8 °F 26% 29.89 in 10.0 mi SSW 17.3 mph 27.6 mph N/A   Clear
3:55 PM 39.2 °F 30.2 °F 8.6 °F 28% 29.88 in 10.0 mi South 17.3 mph 28.8 mph N/A   Clear
4:15 PM 39.2 °F 29.6 °F 8.6 °F 28% 29.87 in 10.0 mi South 19.6 mph 25.3 mph N/A   Clear
4:35 PM 37.4 °F 28.2 °F 8.6 °F 30% 29.86 in 10.0 mi South 16.1 mph 24.2 mph N/A   Clear
4:55 PM 37.4 °F 28.5 °F 8.6 °F 30% 29.85 in 10.0 mi South 15.0 mph 26.5 mph N/A   Clear
5:15 PM 37.4 °F 27.8 °F 8.6 °F 30% 29.85 in 10.0 mi South 17.3 mph 24.2 mph N/A   Clear
5:35 PM 35.6 °F 25.9 °F 8.6 °F 33% 29.84 in 10.0 mi South 16.1 mph 25.3 mph N/A   Clear
5:55 PM 35.6 °F 25.9 °F 10.4 °F 35% 29.84 in 10.0 mi South 16.1 mph 24.2 mph N/A   Clear
6:15 PM 35.6 °F 26.2 °F 10.4 °F 35% 29.84 in 10.0 mi South 15.0 mph - N/A   Clear
6:35 PM 33.8 °F 23.9 °F 10.4 °F 38% 29.82 in 10.0 mi South 15.0 mph - N/A   Clear
6:55 PM 33.8 °F 23.5 °F 10.4 °F 38% 29.82 in 10.0 mi South 16.1 mph 23.0 mph N/A   Clear
7:15 PM 33.8 °F 23.2 °F 10.4 °F 38% 29.80 in 10.0 mi South 17.3 mph 25.3 mph N/A   Clear
7:35 PM 33.8 °F 22.8 °F 10.4 °F 38% 29.80 in 10.0 mi South 18.4 mph - N/A   Clear
7:55 PM 33.8 °F 23.9 °F 10.4 °F 38% 29.79 in 10.0 mi South 15.0 mph 25.3 mph N/A   Clear
8:15 PM 33.8 °F 22.8 °F 10.4 °F 38% 29.78 in 10.0 mi South 18.4 mph - N/A   Clear
8:35 PM 33.8 °F 22.8 °F 10.4 °F 38% 29.77 in 10.0 mi South 18.4 mph 24.2 mph N/A   Clear
8:55 PM 33.8 °F 23.2 °F 10.4 °F 38% 29.76 in 10.0 mi South 17.3 mph 24.2 mph N/A   Clear
9:15 PM 33.8 °F 23.2 °F 10.4 °F 38% 29.76 in 10.0 mi South 17.3 mph 26.5 mph N/A   Clear
9:35 PM 33.8 °F 22.5 °F 10.4 °F 38% 29.75 in 10.0 mi South 19.6 mph 26.5 mph N/A   Clear
9:55 PM 33.8 °F 23.2 °F 10.4 °F 38% 29.75 in 10.0 mi SSW 17.3 mph 25.3 mph N/A   Clear
10:15 PM 33.8 °F 23.2 °F 10.4 °F 38% 29.75 in 10.0 mi South 17.3 mph 25.3 mph N/A   Clear
10:35 PM 33.8 °F 22.8 °F 10.4 °F 38% 29.74 in 10.0 mi SSW 18.4 mph - N/A   Clear
10:55 PM 33.8 °F 22.8 °F 10.4 °F 38% 29.73 in 10.0 mi South 18.4 mph 25.3 mph N/A   Clear
11:15 PM 33.8 °F 23.2 °F 8.6 °F 35% 29.72 in 10.0 mi South 17.3 mph 25.3 mph N/A   Clear
11:35 PM 33.8 °F 23.2 °F 8.6 °F 35% 29.72 in 10.0 mi SSW 17.3 mph 27.6 mph N/A   Clear
11:55 PM 33.8 °F 22.8 °F 8.6 °F 35% 29.71 in 10.0 mi SSW 18.4 mph 26.5 mph N/A   Clear